Track ORBCOMM FM 38 now! 10-day predictions ORBCOMM FM 38 is classified as:
1 33060U 08031A 22182.52975460 .00000226 00000-0 64377-4 0 9998 2 33060 48.4443 35.4177 0005958 95.2634 264.8958 14.74258379754855